TimeEST,TemperatureF,Dew PointF,Humidity,Sea Level PressureIn,VisibilityMPH,Wind Direction,Wind SpeedMPH,Gust SpeedMPH,PrecipitationIn,Events,Conditions,WindDirDegrees,DateUTC
12:15 AM,39.2,39.2,100,29.58,7.0,NE,8.1,-,N/A,Rain,Light Rain,50,2013-03-06 05:15:00
12:35 AM,37.4,37.4,100,29.58,5.0,North,4.6,-,N/A,Rain,Light Rain,360,2013-03-06 05:35:00
12:55 AM,37.4,37.4,100,29.57,5.0,NNE,6.9,-,0.01,Rain,Heavy Rain,20,2013-03-06 05:55:00
1:15 AM,37.4,37.4,100,29.56,5.0,North,6.9,-,N/A,,Drizzle,10,2013-03-06 06:15:00
1:35 AM,37.4,37.4,100,29.54,5.0,NNE,8.1,-,N/A,,Light Drizzle,20,2013-03-06 06:35:00
1:55 AM,35.6,35.6,100,29.55,5.0,North,8.1,-,N/A,,Drizzle,360,2013-03-06 06:55:00
2:15 AM,35.6,35.6,100,29.55,2.5,NNW,3.5,-,N/A,Rain,Heavy Rain,340,2013-03-06 07:15:00
2:35 AM,35.6,35.6,100,29.56,5.0,NNW,10.4,-,0.01,Rain,Light Rain,340,2013-03-06 07:35:00
2:55 AM,35.6,35.6,100,29.55,10.0,NNW,9.2,-,0.01,,Drizzle,330,2013-03-06 07:55:00
3:15 AM,35.6,35.6,100,29.55,10.0,NNW,9.2,-,N/A,,Overcast,330,2013-03-06 08:15:00
3:35 AM,35.6,35.6,100,29.56,10.0,NW,4.6,-,N/A,,Overcast,320,2013-03-06 08:35:00
3:55 AM,35.6,35.6,100,29.57,7.0,NW,8.1,-,0.01,Rain,Light Rain,320,2013-03-06 08:55:00
4:15 AM,35.6,35.6,100,29.58,10.0,NW,10.4,19.6,N/A,,Light Drizzle,310,2013-03-06 09:15:00
4:35 AM,33.8,33.8,100,29.59,7.0,NW,10.4,16.1,N/A,Rain,Light Rain,320,2013-03-06 09:35:00
4:55 AM,33.8,33.8,100,29.59,7.0,NW,9.2,-,N/A,Snow,Light Snow,320,2013-03-06 09:55:00
5:15 AM,33.8,33.8,100,29.60,10.0,WNW,9.2,-,N/A,Rain,Light Rain,300,2013-03-06 10:15:00
5:35 AM,33.8,33.8,100,29.60,10.0,NW,9.2,16.1,N/A,Snow,Light Snow,310,2013-03-06 10:35:00
5:55 AM,33.8,33.8,100,29.60,10.0,WNW,8.1,-,N/A,,Overcast,300,2013-03-06 10:55:00
6:15 AM,33.8,33.8,100,29.60,10.0,WNW,5.8,-,N/A,,Light Drizzle,300,2013-03-06 11:15:00
6:35 AM,33.8,33.8,100,29.61,10.0,NW,10.4,20.7,N/A,,Overcast,310,2013-03-06 11:35:00
6:55 AM,33.8,32.0,93,29.62,10.0,NW,9.2,17.3,N/A,,Overcast,310,2013-03-06 11:55:00
7:15 AM,33.8,32.0,93,29.62,10.0,NW,6.9,16.1,N/A,,Overcast,310,2013-03-06 12:15:00
7:35 AM,35.6,32.0,87,29.62,10.0,WNW,10.4,23.0,N/A,,Overcast,300,2013-03-06 12:35:00
7:55 AM,35.6,32.0,87,29.63,10.0,West,9.2,23.0,N/A,,Overcast,280,2013-03-06 12:55:00
8:15 AM,35.6,32.0,87,29.64,10.0,WNW,12.7,27.6,N/A,,Light Drizzle,290,2013-03-06 13:15:00
8:35 AM,35.6,32.0,87,29.65,10.0,WNW,9.2,25.3,N/A,Rain,Light Rain,300,2013-03-06 13:35:00
8:55 AM,35.6,32.0,87,29.64,10.0,WNW,12.7,25.3,N/A,,Overcast,290,2013-03-06 13:55:00
9:15 AM,37.4,30.2,75,29.65,10.0,WNW,19.6,31.1,N/A,,Overcast,300,2013-03-06 14:15:00
9:35 AM,37.4,28.4,70,29.66,10.0,WNW,12.7,27.6,N/A,,Overcast,300,2013-03-06 14:35:00
9:55 AM,37.4,28.4,70,29.66,10.0,WNW,12.7,28.8,N/A,,Overcast,300,2013-03-06 14:55:00
10:15 AM,37.4,28.4,70,29.67,10.0,WNW,17.3,26.5,N/A,,Overcast,300,2013-03-06 15:15:00
10:35 AM,37.4,28.4,70,29.67,10.0,NW,15.0,35.7,N/A,,Overcast,310,2013-03-06 15:35:00
10:55 AM,37.4,28.4,70,29.67,10.0,WNW,12.7,28.8,N/A,,Overcast,290,2013-03-06 15:55:00
11:15 AM,37.4,28.4,70,29.68,10.0,WNW,16.1,32.2,N/A,,Overcast,300,2013-03-06 16:15:00
11:35 AM,39.2,28.4,65,29.69,10.0,WNW,9.2,29.9,N/A,,Overcast,300,2013-03-06 16:35:00
11:55 AM,39.2,26.6,61,29.69,10.0,NW,16.1,31.1,N/A,,Overcast,310,2013-03-06 16:55:00
12:15 PM,41.0,28.4,61,29.69,10.0,NW,17.3,28.8,N/A,,Overcast,310,2013-03-06 17:15:00
12:35 PM,41.0,28.4,61,29.70,10.0,NW,15.0,28.8,N/A,,Overcast,310,2013-03-06 17:35:00
12:55 PM,41.0,28.4,61,29.71,10.0,NW,11.5,27.6,N/A,,Overcast,310,2013-03-06 17:55:00
1:15 PM,41.0,28.4,61,29.71,10.0,NW,19.6,31.1,N/A,,Overcast,320,2013-03-06 18:15:00
1:55 PM,42.8,30.2,61,29.72,10.0,NNW,12.7,25.3,N/A,,Overcast,330,2013-03-06 18:55:00
2:15 PM,44.6,30.2,57,29.73,10.0,NNW,18.4,29.9,N/A,,Overcast,330,2013-03-06 19:15:00
2:35 PM,44.6,30.2,57,29.74,10.0,NNW,11.5,33.4,N/A,,Overcast,330,2013-03-06 19:35:00
2:55 PM,44.6,30.2,57,29.75,10.0,NNW,16.1,29.9,N/A,,Overcast,340,2013-03-06 19:55:00
3:15 PM,44.6,32.0,61,29.76,10.0,NNW,17.3,32.2,N/A,,Overcast,340,2013-03-06 20:15:00
3:35 PM,44.6,30.2,57,29.78,10.0,NNW,21.9,32.2,N/A,,Overcast,340,2013-03-06 20:35:00
3:55 PM,44.6,32.0,61,29.80,10.0,NNW,16.1,31.1,N/A,,Overcast,330,2013-03-06 20:55:00
4:15 PM,44.6,32.0,61,29.82,10.0,North,10.4,27.6,N/A,,Overcast,350,2013-03-06 21:15:00
4:35 PM,44.6,30.2,57,29.84,10.0,NNW,19.6,35.7,N/A,,Overcast,340,2013-03-06 21:35:00
4:55 PM,44.6,32.0,61,29.85,10.0,NNW,9.2,24.2,N/A,,Overcast,330,2013-03-06 21:55:00
5:15 PM,44.6,32.0,61,29.87,10.0,NW,10.4,-,N/A,,Overcast,320,2013-03-06 22:15:00
5:35 PM,44.6,32.0,61,29.88,10.0,NNW,13.8,20.7,N/A,,Overcast,340,2013-03-06 22:35:00
5:55 PM,44.6,30.2,57,29.90,10.0,NW,10.4,19.6,N/A,,Overcast,320,2013-03-06 22:55:00
6:15 PM,42.8,30.2,61,29.92,10.0,NNW,12.7,24.2,N/A,,Overcast,330,2013-03-06 23:15:00
6:35 PM,42.8,30.2,61,29.94,10.0,NW,9.2,18.4,N/A,,Overcast,310,2013-03-06 23:35:00
6:55 PM,42.8,30.2,61,29.96,10.0,NNW,10.4,18.4,N/A,,Overcast,330,2013-03-06 23:55:00
7:15 PM,41.0,30.2,65,29.97,10.0,NW,10.4,21.9,N/A,,Overcast,320,2013-03-07 00:15:00
7:35 PM,41.0,30.2,65,29.98,10.0,NNW,9.2,18.4,N/A,,Scattered Clouds,330,2013-03-07 00:35:00
7:55 PM,41.0,30.2,65,29.98,10.0,NNW,13.8,18.4,N/A,,Clear,340,2013-03-07 00:55:00
8:15 PM,39.2,30.2,70,30.00,10.0,NNW,8.1,16.1,N/A,,Clear,340,2013-03-07 01:15:00
8:35 PM,39.2,30.2,70,30.00,10.0,NNW,4.6,-,N/A,,Clear,330,2013-03-07 01:35:00
8:55 PM,37.4,30.2,75,30.01,10.0,NNW,8.1,-,N/A,,Scattered Clouds,340,2013-03-07 01:55:00
9:15 PM,37.4,30.2,75,30.02,10.0,NNW,8.1,-,N/A,,Scattered Clouds,330,2013-03-07 02:15:00
9:35 PM,37.4,28.4,70,30.02,10.0,NNW,9.2,-,N/A,,Clear,340,2013-03-07 02:35:00
9:55 PM,37.4,28.4,70,30.02,10.0,NW,5.8,-,N/A,,Clear,320,2013-03-07 02:55:00
10:15 PM,35.6,28.4,75,30.04,10.0,NW,5.8,-,N/A,,Clear,320,2013-03-07 03:15:00
10:35 PM,35.6,30.2,81,30.04,10.0,NW,5.8,-,N/A,,Clear,320,2013-03-07 03:35:00
10:55 PM,35.6,30.2,81,30.04,10.0,NW,5.8,-,N/A,,Clear,320,2013-03-07 03:55:00
11:15 PM,35.6,28.4,75,30.03,10.0,NW,5.8,-,N/A,,Clear,320,2013-03-07 04:15:00
11:35 PM,35.6,28.4,75,30.04,10.0,NW,4.6,-,N/A,,Clear,310,2013-03-07 04:35:00
11:55 PM,35.6,28.4,75,30.04,10.0,NW,4.6,-,N/A,,Scattered Clouds,310,2013-03-07 04:55:00